Time,TemperatureF,DewpointF,PressureIn,WindDirection,WindDirectionDegrees,WindSpeedMPH,WindSpeedGustMPH,Humidity,HourlyPrecipIn,Conditions,Clouds,dailyrainin,SoftwareType,DateUTC
2013-03-29 00:00:00,33.3,23.8,30.32,SW,225,0.0,0.0,68,0.00,,,0.00,WUHU21623XXSP,2013-03-29 04:00:00,
2013-03-29 00:05:00,33.1,23.6,30.32,SW,225,0.0,0.0,68,0.00,,,0.00,WUHU21623XXSP,2013-03-29 04:05:00,
2013-03-29 00:10:00,32.7,23.6,30.32,SW,225,0.0,0.0,69,0.00,,,0.00,WUHU21623XXSP,2013-03-29 04:10:00,
2013-03-29 00:15:00,32.7,23.6,30.32,SW,225,0.0,0.0,69,0.00,,,0.00,WUHU21623XXSP,2013-03-29 04:15:00,
2013-03-29 00:20:00,32.7,23.6,30.32,SW,225,0.0,0.0,69,0.00,,,0.00,WUHU21623XXSP,2013-03-29 04:20:00,
2013-03-29 00:25:00,32.5,23.8,30.32,SW,225,0.0,0.0,70,0.00,,,0.00,WUHU21623XXSP,2013-03-29 04:25:00,
2013-03-29 00:30:00,32.4,23.7,30.32,SW,225,0.0,0.0,70,0.00,,,0.00,WUHU21623XXSP,2013-03-29 04:30:00,
2013-03-29 00:35:00,32.2,23.5,30.32,SW,225,0.0,0.0,70,0.00,,,0.00,WUHU21623XXSP,2013-03-29 04:35:00,
2013-03-29 00:40:00,32.2,23.5,30.32,SW,225,0.0,0.0,70,0.00,,,0.00,WUHU21623XXSP,2013-03-29 04:40:00,
2013-03-29 00:45:00,32.0,23.4,30.32,SW,225,0.0,0.0,70,0.00,,,0.00,WUHU21623XXSP,2013-03-29 04:45:00,
2013-03-29 00:50:00,31.8,23.2,30.32,SW,225,0.0,0.0,70,0.00,,,0.00,WUHU21623XXSP,2013-03-29 04:50:00,
2013-03-29 00:55:00,31.8,23.2,30.32,SW,225,0.0,0.0,70,0.00,,,0.00,WUHU21623XXSP,2013-03-29 04:55:00,
2013-03-29 01:00:00,31.8,23.2,30.32,SW,225,0.0,0.0,70,0.00,,,0.00,WUHU21623XXSP,2013-03-29 05:00:00,
2013-03-29 01:05:00,31.6,23.3,30.32,SW,225,0.0,0.0,71,0.00,,,0.00,WUHU21623XXSP,2013-03-29 05:05:00,
2013-03-29 01:10:00,31.6,23.3,30.32,SW,225,0.0,0.0,71,0.00,,,0.00,WUHU21623XXSP,2013-03-29 05:10:00,
2013-03-29 01:15:00,31.6,23.3,30.32,SW,225,0.0,0.0,71,0.00,,,0.00,WUHU21623XXSP,2013-03-29 05:15:00,
2013-03-29 01:20:00,31.3,23.0,30.33,SW,225,0.0,0.0,71,0.00,,,0.00,WUHU21623XXSP,2013-03-29 05:20:00,
2013-03-29 01:25:00,31.3,23.0,30.33,SW,225,0.0,0.0,71,0.00,,,0.00,WUHU21623XXSP,2013-03-29 05:25:00,
2013-03-29 01:30:00,31.1,22.8,30.33,SW,225,0.0,0.0,71,0.00,,,0.00,WUHU21623XXSP,2013-03-29 05:30:00,
2013-03-29 01:35:00,30.9,22.6,30.32,SW,225,0.0,0.0,71,0.00,,,0.00,WUHU21623XXSP,2013-03-29 05:35:00,
2013-03-29 01:40:00,30.7,22.7,30.32,SW,225,0.0,0.0,72,0.00,,,0.00,WUHU21623XXSP,2013-03-29 05:40:00,
2013-03-29 01:45:00,30.7,23.1,30.32,SW,225,0.0,0.0,73,0.00,,,0.00,WUHU21623XXSP,2013-03-29 05:45:00,
2013-03-29 01:50:00,30.7,23.1,30.32,SW,225,0.0,0.0,73,0.00,,,0.00,WUHU21623XXSP,2013-03-29 05:50:00,
2013-03-29 01:55:00,30.7,23.1,30.32,SW,225,0.0,0.0,73,0.00,,,0.00,WUHU21623XXSP,2013-03-29 05:55:00,
2013-03-29 02:00:00,30.7,23.1,30.32,SW,225,0.0,0.0,73,0.00,,,0.00,WUHU21623XXSP,2013-03-29 06:00:00,
2013-03-29 02:05:00,30.7,23.1,30.32,SW,225,0.0,0.0,73,0.00,,,0.00,WUHU21623XXSP,2013-03-29 06:05:00,
2013-03-29 02:10:00,30.7,23.1,30.32,SW,225,0.0,0.0,73,0.00,,,0.00,WUHU21623XXSP,2013-03-29 06:10:00,
2013-03-29 02:15:00,30.2,22.5,30.32,SW,225,0.0,0.0,73,0.00,,,0.00,WUHU21623XXSP,2013-03-29 06:15:00,
2013-03-29 02:20:00,30.0,22.4,30.32,SW,225,0.0,0.0,73,0.00,,,0.00,WUHU21623XXSP,2013-03-29 06:20:00,
2013-03-29 02:25:00,30.0,22.4,30.32,SW,225,0.0,0.0,73,0.00,,,0.00,WUHU21623XXSP,2013-03-29 06:25:00,
2013-03-29 02:30:00,30.0,22.4,30.33,SW,225,0.0,0.0,73,0.00,,,0.00,WUHU21623XXSP,2013-03-29 06:30:00,
2013-03-29 02:35:00,29.8,22.5,30.32,SW,225,0.0,0.0,74,0.00,,,0.00,WUHU21623XXSP,2013-03-29 06:35:00,
2013-03-29 02:40:00,29.8,22.5,30.33,SW,225,0.0,0.0,74,0.00,,,0.00,WUHU21623XXSP,2013-03-29 06:40:00,
2013-03-29 02:45:00,29.7,22.3,30.32,SW,225,0.0,0.0,74,0.00,,,0.00,WUHU21623XXSP,2013-03-29 06:45:00,
2013-03-29 02:50:00,29.5,22.2,30.32,SW,225,0.0,0.0,74,0.00,,,0.00,WUHU21623XXSP,2013-03-29 06:50:00,
2013-03-29 02:55:00,29.5,22.2,30.32,SW,225,0.0,0.0,74,0.00,,,0.00,WUHU21623XXSP,2013-03-29 06:55:00,
2013-03-29 03:00:00,29.5,22.2,30.32,SW,225,0.0,0.0,74,0.00,,,0.00,WUHU21623XXSP,2013-03-29 07:00:00,
2013-03-29 03:05:00,29.5,22.2,30.32,SW,225,0.0,0.0,74,0.00,,,0.00,WUHU21623XXSP,2013-03-29 07:05:00,
2013-03-29 03:10:00,29.5,22.2,30.32,SW,225,0.0,0.0,74,0.00,,,0.00,WUHU21623XXSP,2013-03-29 07:10:00,
2013-03-29 03:15:00,29.3,22.0,30.32,SW,225,0.0,0.0,74,0.00,,,0.00,WUHU21623XXSP,2013-03-29 07:15:00,
2013-03-29 03:20:00,29.3,22.0,30.32,SW,225,0.0,0.0,74,0.00,,,0.00,WUHU21623XXSP,2013-03-29 07:20:00,
2013-03-29 03:25:00,29.1,21.8,30.32,SW,225,0.0,0.0,74,0.00,,,0.00,WUHU21623XXSP,2013-03-29 07:25:00,
2013-03-29 03:30:00,29.1,21.8,30.32,SW,225,0.0,0.0,74,0.00,,,0.00,WUHU21623XXSP,2013-03-29 07:30:00,
2013-03-29 03:35:00,29.1,21.8,30.31,SW,225,0.0,0.0,74,0.00,,,0.00,WUHU21623XXSP,2013-03-29 07:35:00,
2013-03-29 03:40:00,29.1,21.8,30.31,SW,225,0.0,0.0,74,0.00,,,0.00,WUHU21623XXSP,2013-03-29 07:40:00,
2013-03-29 03:45:00,29.1,21.8,30.31,SW,225,0.0,0.0,74,0.00,,,0.00,WUHU21623XXSP,2013-03-29 07:45:00,
2013-03-29 03:50:00,29.1,22.2,30.31,SW,225,0.0,0.0,75,0.00,,,0.00,WUHU21623XXSP,2013-03-29 07:50:00,
2013-03-29 03:55:00,28.9,22.0,30.31,SW,225,0.0,0.0,75,0.00,,,0.00,WUHU21623XXSP,2013-03-29 07:55:00,
2013-03-29 04:00:00,28.9,22.0,30.31,SW,225,0.0,0.0,75,0.00,,,0.00,WUHU21623XXSP,2013-03-29 08:00:00,
2013-03-29 04:05:00,28.9,22.3,30.31,SW,225,0.0,0.0,76,0.00,,,0.00,WUHU21623XXSP,2013-03-29 08:05:00,
2013-03-29 04:10:00,28.9,22.3,30.30,SW,225,0.0,0.0,76,0.00,,,0.00,WUHU21623XXSP,2013-03-29 08:10:00,
2013-03-29 04:15:00,28.9,22.3,30.30,SW,225,0.0,0.0,76,0.00,,,0.00,WUHU21623XXSP,2013-03-29 08:15:00,
2013-03-29 04:20:00,28.8,22.1,30.30,SW,225,0.0,0.0,76,0.00,,,0.00,WUHU21623XXSP,2013-03-29 08:20:00,
2013-03-29 04:25:00,28.8,22.1,30.30,SW,225,0.0,0.0,76,0.00,,,0.00,WUHU21623XXSP,2013-03-29 08:25:00,
2013-03-29 04:30:00,28.8,22.1,30.30,SW,225,0.0,0.0,76,0.00,,,0.00,WUHU21623XXSP,2013-03-29 08:30:00,
2013-03-29 04:35:00,28.6,21.9,30.30,SW,225,0.0,0.0,76,0.00,,,0.00,WUHU21623XXSP,2013-03-29 08:35:00,
2013-03-29 04:40:00,28.6,21.9,30.30,SW,225,0.0,0.0,76,0.00,,,0.00,WUHU21623XXSP,2013-03-29 08:40:00,
2013-03-29 04:45:00,28.6,21.9,30.30,SW,225,0.0,0.0,76,0.00,,,0.00,WUHU21623XXSP,2013-03-29 08:45:00,
2013-03-29 04:50:00,28.6,21.9,30.30,SW,225,0.0,0.0,76,0.00,,,0.00,WUHU21623XXSP,2013-03-29 08:50:00,
2013-03-29 04:55:00,28.6,21.9,30.30,SW,225,0.0,0.0,76,0.00,,,0.00,WUHU21623XXSP,2013-03-29 08:55:00,
2013-03-29 05:00:00,28.4,21.8,30.30,SW,225,0.0,0.0,76,0.00,,,0.00,WUHU21623XXSP,2013-03-29 09:00:00,
2013-03-29 05:05:00,28.4,21.8,30.30,SW,225,0.0,0.0,76,0.00,,,0.00,WUHU21623XXSP,2013-03-29 09:05:00,
2013-03-29 05:10:00,28.4,22.1,30.30,SW,225,0.0,0.0,77,0.00,,,0.00,WUHU21623XXSP,2013-03-29 09:10:00,
2013-03-29 05:15:00,28.6,22.2,30.30,SW,225,0.0,0.0,77,0.00,,,0.00,WUHU21623XXSP,2013-03-29 09:15:00,
2013-03-29 05:20:00,28.6,22.2,30.30,SW,225,0.0,0.0,77,0.00,,,0.00,WUHU21623XXSP,2013-03-29 09:20:00,
2013-03-29 05:25:00,28.6,22.5,30.30,SW,225,0.0,0.0,78,0.00,,,0.00,WUHU21623XXSP,2013-03-29 09:25:00,
2013-03-29 05:30:00,28.6,22.5,30.30,SW,225,0.0,0.0,78,0.00,,,0.00,WUHU21623XXSP,2013-03-29 09:30:00,
2013-03-29 05:35:00,28.6,22.5,30.30,SW,225,0.0,0.0,78,0.00,,,0.00,WUHU21623XXSP,2013-03-29 09:35:00,
2013-03-29 05:40:00,28.8,22.7,30.30,SW,225,0.0,0.0,78,0.00,,,0.00,WUHU21623XXSP,2013-03-29 09:40:00,
2013-03-29 05:45:00,28.8,23.0,30.29,SW,225,0.0,0.0,79,0.00,,,0.00,WUHU21623XXSP,2013-03-29 09:45:00,
2013-03-29 05:50:00,28.9,23.2,30.29,SW,225,0.0,0.0,79,0.00,,,0.00,WUHU21623XXSP,2013-03-29 09:50:00,
2013-03-29 05:55:00,28.9,23.2,30.29,SW,225,0.0,0.0,79,0.00,,,0.00,WUHU21623XXSP,2013-03-29 09:55:00,
2013-03-29 06:00:00,28.9,23.2,30.29,SW,225,0.0,0.0,79,0.00,,,0.00,WUHU21623XXSP,2013-03-29 10:00:00,
2013-03-29 06:05:00,29.1,23.4,30.29,SW,225,0.0,0.0,79,0.00,,,0.00,WUHU21623XXSP,2013-03-29 10:05:00,
2013-03-29 06:10:00,29.1,23.4,30.29,SW,225,0.0,0.0,79,0.00,,,0.00,WUHU21623XXSP,2013-03-29 10:10:00,
2013-03-29 06:15:00,29.1,23.4,30.29,SW,225,0.0,0.0,79,0.00,,,0.00,WUHU21623XXSP,2013-03-29 10:15:00,
2013-03-29 06:20:00,29.1,23.4,30.29,SW,225,0.0,0.0,79,0.00,,,0.00,WUHU21623XXSP,2013-03-29 10:20:00,
2013-03-29 06:25:00,29.1,23.4,30.29,SW,225,0.0,0.0,79,0.00,,,0.00,WUHU21623XXSP,2013-03-29 10:25:00,
2013-03-29 06:30:00,29.1,23.4,30.29,SW,225,0.0,0.0,79,0.00,,,0.00,WUHU21623XXSP,2013-03-29 10:30:00,
2013-03-29 06:35:00,29.3,23.6,30.29,SW,225,0.0,0.0,79,0.00,,,0.00,WUHU21623XXSP,2013-03-29 10:35:00,
2013-03-29 06:40:00,29.3,23.6,30.29,SW,225,0.0,0.0,79,0.00,,,0.00,WUHU21623XXSP,2013-03-29 10:40:00,
2013-03-29 06:45:00,29.3,23.6,30.29,SW,225,0.0,0.0,79,0.00,,,0.00,WUHU21623XXSP,2013-03-29 10:45:00,
2013-03-29 06:50:00,29.5,23.8,30.29,SW,225,0.0,0.0,79,0.00,,,0.00,WUHU21623XXSP,2013-03-29 10:50:00,
2013-03-29 06:55:00,29.5,23.8,30.29,SW,225,0.0,0.0,79,0.00,,,0.00,WUHU21623XXSP,2013-03-29 10:55:00,
2013-03-29 07:00:00,29.5,23.8,30.29,SW,225,0.0,0.0,79,0.00,,,0.00,WUHU21623XXSP,2013-03-29 11:00:00,
2013-03-29 07:05:00,29.5,23.8,30.29,SW,225,0.0,0.0,79,0.00,,,0.00,WUHU21623XXSP,2013-03-29 11:05:00,
2013-03-29 07:10:00,29.5,23.8,30.30,SW,225,0.0,0.0,79,0.00,,,0.00,WUHU21623XXSP,2013-03-29 11:10:00,
2013-03-29 07:15:00,29.5,23.8,30.30,SW,225,0.0,0.0,79,0.00,,,0.00,WUHU21623XXSP,2013-03-29 11:15:00,
2013-03-29 07:20:00,29.5,23.8,30.29,SW,225,0.0,0.0,79,0.00,,,0.00,WUHU21623XXSP,2013-03-29 11:20:00,
2013-03-29 07:25:00,29.5,23.8,30.29,SW,225,0.0,0.0,79,0.00,,,0.00,WUHU21623XXSP,2013-03-29 11:25:00,
2013-03-29 07:30:00,29.5,23.8,30.29,SW,225,0.0,0.0,79,0.00,,,0.00,WUHU21623XXSP,2013-03-29 11:30:00,
2013-03-29 07:35:00,29.5,24.1,30.30,SW,225,0.0,0.0,80,0.00,,,0.00,WUHU21623XXSP,2013-03-29 11:35:00,
2013-03-29 07:40:00,29.5,24.1,30.30,SW,225,0.0,0.0,80,0.00,,,0.00,WUHU21623XXSP,2013-03-29 11:40:00,
2013-03-29 07:45:00,29.5,24.1,30.30,SW,225,0.0,0.0,80,0.00,,,0.00,WUHU21623XXSP,2013-03-29 11:45:00,
2013-03-29 07:50:00,29.5,24.1,30.30,SW,225,0.0,0.0,80,0.00,,,0.00,WUHU21623XXSP,2013-03-29 11:50:00,
2013-03-29 07:55:00,29.5,24.1,30.31,SW,225,0.0,0.0,80,0.00,,,0.00,WUHU21623XXSP,2013-03-29 11:55:00,
2013-03-29 08:00:00,29.5,23.8,30.31,SW,225,0.0,0.0,79,0.00,,,0.00,WUHU21623XXSP,2013-03-29 12:00:00,
2013-03-29 08:05:00,29.5,23.8,30.31,SW,225,0.0,0.0,79,0.00,,,0.00,WUHU21623XXSP,2013-03-29 12:05:00,
2013-03-29 08:10:00,29.5,23.8,30.31,SW,225,0.0,0.0,79,0.00,,,0.00,WUHU21623XXSP,2013-03-29 12:10:00,
2013-03-29 08:15:00,29.5,23.8,30.31,SW,225,0.0,0.0,79,0.00,,,0.00,WUHU21623XXSP,2013-03-29 12:15:00,
2013-03-29 08:20:00,29.3,23.6,30.31,SW,225,0.0,0.0,79,0.00,,,0.00,WUHU21623XXSP,2013-03-29 12:20:00,
2013-03-29 08:25:00,29.5,24.1,30.31,SW,225,0.0,0.0,80,0.00,,,0.00,WUHU21623XXSP,2013-03-29 12:25:00,
2013-03-29 08:30:00,29.7,24.3,30.32,SW,225,0.0,0.0,80,0.00,,,0.00,WUHU21623XXSP,2013-03-29 12:30:00,
2013-03-29 08:35:00,30.0,24.6,30.31,SW,225,0.0,0.0,80,0.00,,,0.00,WUHU21623XXSP,2013-03-29 12:35:00,
2013-03-29 08:41:00,30.2,24.8,30.31,SW,225,0.0,0.0,80,0.00,,,0.00,WUHU21623XXSP,2013-03-29 12:41:00,
2013-03-29 08:46:00,30.7,25.6,30.31,SW,225,0.0,0.0,81,0.00,,,0.00,WUHU21623XXSP,2013-03-29 12:46:00,
2013-03-29 08:51:00,30.9,25.8,30.31,SW,225,0.0,0.0,81,0.00,,,0.00,WUHU21623XXSP,2013-03-29 12:51:00,
2013-03-29 08:56:00,31.6,26.5,30.31,SW,225,0.0,0.0,81,0.00,,,0.00,WUHU21623XXSP,2013-03-29 12:56:00,
2013-03-29 09:01:00,32.4,27.2,30.31,SW,225,0.0,0.0,81,0.00,,,0.00,WUHU21623XXSP,2013-03-29 13:01:00,
2013-03-29 09:06:00,32.7,27.5,30.32,SW,225,0.0,0.0,81,0.00,,,0.00,WUHU21623XXSP,2013-03-29 13:06:00,
2013-03-29 09:11:00,33.6,28.3,30.32,SW,225,0.0,0.0,81,0.00,,,0.00,WUHU21623XXSP,2013-03-29 13:11:00,
2013-03-29 09:16:00,34.2,28.9,30.32,SW,225,0.0,0.0,81,0.00,,,0.00,WUHU21623XXSP,2013-03-29 13:16:00,
2013-03-29 09:21:00,34.7,29.4,30.32,SW,225,0.0,0.0,81,0.00,,,0.00,WUHU21623XXSP,2013-03-29 13:21:00,
2013-03-29 09:26:00,36.3,31.0,30.32,SW,225,0.0,0.0,81,0.00,,,0.00,WUHU21623XXSP,2013-03-29 13:26:00,
2013-03-29 09:31:00,37.4,32.1,30.32,SW,225,0.0,0.0,81,0.00,,,0.00,WUHU21623XXSP,2013-03-29 13:31:00,
2013-03-29 09:37:00,38.8,33.8,30.32,SW,225,0.0,0.0,82,0.00,,,0.00,WUHU21623XXSP,2013-03-29 13:37:00,
2013-03-29 09:42:00,41.2,35.4,30.33,WSW,247,0.0,0.0,80,0.00,,,0.00,WUHU21623XXSP,2013-03-29 13:42:00,
2013-03-29 09:47:00,42.4,36.4,30.33,WSW,247,0.0,0.0,79,0.00,,,0.00,WUHU21623XXSP,2013-03-29 13:47:00,
2013-03-29 09:52:00,42.4,36.4,30.32,WSW,247,0.0,0.0,79,0.00,,,0.00,WUHU21623XXSP,2013-03-29 13:52:00,
2013-03-29 09:57:00,45.1,38.0,30.32,West,270,0.0,0.0,76,0.00,,,0.00,WUHU21623XXSP,2013-03-29 13:57:00,
2013-03-29 10:02:00,45.3,37.5,30.33,SSE,157,0.0,0.0,74,0.00,,,0.00,WUHU21623XXSP,2013-03-29 14:02:00,
2013-03-29 10:07:00,45.9,37.7,30.33,SSE,157,0.0,0.0,73,0.00,,,0.00,WUHU21623XXSP,2013-03-29 14:07:00,
2013-03-29 10:12:00,46.6,37.4,30.33,West,270,0.0,0.0,72,0.00,,,0.00,WUHU21623XXSP,2013-03-29 14:12:00,
2013-03-29 10:17:00,46.9,38.0,30.33,West,270,0.0,0.0,71,0.00,,,0.00,WUHU21623XXSP,2013-03-29 14:17:00,
2013-03-29 10:22:00,47.1,38.2,30.32,West,270,0.0,0.0,71,0.00,,,0.00,WUHU21623XXSP,2013-03-29 14:22:00,
2013-03-29 10:27:00,47.1,37.5,30.32,South,180,0.0,0.7,69,0.00,,,0.00,WUHU21623XXSP,2013-03-29 14:27:00,
2013-03-29 10:32:00,47.1,36.7,30.32,SSE,157,0.0,0.7,67,0.00,,,0.00,WUHU21623XXSP,2013-03-29 14:32:00,
2013-03-29 10:37:00,46.6,36.2,30.32,SSE,157,0.0,0.0,67,0.00,,,0.00,WUHU21623XXSP,2013-03-29 14:37:00,
2013-03-29 10:42:00,46.6,36.2,30.32,West,270,0.0,0.0,67,0.00,,,0.00,WUHU21623XXSP,2013-03-29 14:42:00,
2013-03-29 10:47:00,46.2,35.9,30.32,West,270,0.0,0.0,67,0.00,,,0.00,WUHU21623XXSP,2013-03-29 14:47:00,
2013-03-29 10:52:00,46.2,35.9,30.33,West,270,0.0,0.0,67,0.00,,,0.00,WUHU21623XXSP,2013-03-29 14:52:00,
2013-03-29 10:57:00,46.2,35.1,30.33,West,270,0.0,0.0,65,0.00,,,0.00,WUHU21623XXSP,2013-03-29 14:57:00,
2013-03-29 11:02:00,45.9,34.9,30.33,WNW,292,0.9,0.9,65,0.00,,,0.00,WUHU21623XXSP,2013-03-29 15:02:00,
2013-03-29 11:07:00,45.3,34.3,30.32,WNW,292,1.3,1.3,65,0.00,,,0.00,WUHU21623XXSP,2013-03-29 15:07:00,
2013-03-29 11:12:00,44.9,34.0,30.33,NW,315,0.0,1.3,65,0.00,,,0.00,WUHU21623XXSP,2013-03-29 15:12:00,
2013-03-29 11:17:00,44.7,33.7,30.33,SW,225,0.9,0.9,65,0.00,,,0.00,WUHU21623XXSP,2013-03-29 15:17:00,
2013-03-29 11:22:00,44.3,33.0,30.33,WNW,292,0.0,0.9,64,0.00,,,0.00,WUHU21623XXSP,2013-03-29 15:22:00,
2013-03-29 11:27:00,44.0,32.7,30.33,NE,45,0.0,0.9,64,0.00,,,0.00,WUHU21623XXSP,2013-03-29 15:27:00,
2013-03-29 11:32:00,43.7,32.4,30.33,WNW,292,0.0,0.0,64,0.00,,,0.00,WUHU21623XXSP,2013-03-29 15:32:00,
2013-03-29 11:37:00,43.7,32.1,30.33,SSW,202,0.0,0.0,63,0.00,,,0.00,WUHU21623XXSP,2013-03-29 15:37:00,
2013-03-29 11:42:00,43.5,31.8,30.33,SW,225,0.0,0.0,63,0.00,,,0.00,WUHU21623XXSP,2013-03-29 15:42:00,
2013-03-29 11:47:00,43.4,31.7,30.33,WNW,292,0.0,0.0,63,0.00,,,0.00,WUHU21623XXSP,2013-03-29 15:47:00,
2013-03-29 11:52:00,43.1,31.0,30.33,WNW,294,1.2,1.3,62,0.00,,,0.00,WUHU21623XXSP,2013-03-29 15:52:00,
2013-03-29 11:57:00,42.8,30.8,30.33,NNW,337,0.0,1.3,62,0.00,,,0.00,WUHU21623XXSP,2013-03-29 15:57:00,
2013-03-29 12:02:00,43.0,30.9,30.33,NW,315,0.0,0.7,62,0.00,,,0.00,WUHU21623XXSP,2013-03-29 16:02:00,
2013-03-29 12:07:00,43.0,30.6,30.33,WSW,247,0.2,0.2,61,0.00,,,0.00,WUHU21623XXSP,2013-03-29 16:07:00,
2013-03-29 12:12:00,43.0,30.5,30.33,SW,225,0.0,0.2,61,0.00,,,0.00,WUHU21623XXSP,2013-03-29 16:12:00,
2013-03-29 12:17:00,42.7,29.9,30.33,NW,315,1.8,1.8,60,0.00,,,0.00,WUHU21623XXSP,2013-03-29 16:17:00,
2013-03-29 12:22:00,42.9,30.0,30.32,NW,315,1.8,1.8,60,0.00,,,0.00,WUHU21623XXSP,2013-03-29 16:22:00,
2013-03-29 12:27:00,42.9,30.0,30.32,West,270,1.1,1.8,60,0.00,,,0.00,WUHU21623XXSP,2013-03-29 16:27:00,
2013-03-29 12:32:00,42.9,29.7,30.32,West,270,1.1,1.8,59,0.00,,,0.00,WUHU21623XXSP,2013-03-29 16:32:00,
2013-03-29 12:37:00,43.1,29.8,30.32,East,90,0.0,1.1,59,0.00,,,0.00,WUHU21623XXSP,2013-03-29 16:37:00,
2013-03-29 12:42:00,43.1,29.8,30.31,ENE,67,0.0,0.0,59,0.00,,,0.00,WUHU21623XXSP,2013-03-29 16:42:00,
2013-03-29 12:47:00,43.0,29.8,30.31,WNW,292,1.1,1.1,59,0.00,,,0.00,WUHU21623XXSP,2013-03-29 16:47:00,
2013-03-29 12:52:00,43.3,30.0,30.31,NW,315,1.1,1.1,59,0.00,,,0.00,WUHU21623XXSP,2013-03-29 16:52:00,
2013-03-29 12:57:00,43.3,29.6,30.31,NW,315,4.3,4.3,58,0.00,,,0.00,WUHU21623XXSP,2013-03-29 16:57:00,
2013-03-29 13:02:00,43.2,29.0,30.31,NW,315,2.5,4.3,57,0.00,,,0.00,WUHU21623XXSP,2013-03-29 17:02:00,
2013-03-29 13:07:00,43.0,28.9,30.31,NW,315,0.0,2.5,57,0.00,,,0.00,WUHU21623XXSP,2013-03-29 17:07:00,
2013-03-29 13:12:00,42.9,28.7,30.31,West,270,0.0,0.0,57,0.00,,,0.00,WUHU21623XXSP,2013-03-29 17:12:00,
2013-03-29 13:17:00,42.8,28.6,30.31,ENE,67,0.0,0.0,57,0.00,,,0.00,WUHU21623XXSP,2013-03-29 17:17:00,
2013-03-29 13:22:00,42.7,28.1,30.30,NW,315,2.2,3.6,56,0.00,,,0.00,WUHU21623XXSP,2013-03-29 17:22:00,
2013-03-29 13:27:00,42.4,27.8,30.31,West,270,0.0,3.6,56,0.00,,,0.00,WUHU21623XXSP,2013-03-29 17:27:00,
2013-03-29 13:33:00,42.3,27.7,30.30,West,270,0.0,3.6,56,0.00,,,0.00,WUHU21623XXSP,2013-03-29 17:33:00,
2013-03-29 13:38:00,42.0,27.5,30.30,West,270,0.7,3.6,56,0.00,,,0.00,WUHU21623XXSP,2013-03-29 17:38:00,
2013-03-29 13:43:00,42.0,27.4,30.30,West,270,0.7,0.7,56,0.00,,,0.00,WUHU21623XXSP,2013-03-29 17:43:00,
2013-03-29 13:48:00,41.9,27.0,30.30,WNW,292,0.0,1.3,55,0.00,,,0.00,WUHU21623XXSP,2013-03-29 17:48:00,
2013-03-29 13:53:00,42.1,27.1,30.29,NW,310,5.0,7.2,55,0.00,,,0.00,WUHU21623XXSP,2013-03-29 17:53:00,
2013-03-29 13:58:00,42.3,26.8,30.29,NNW,337,0.7,7.2,54,0.00,,,0.00,WUHU21623XXSP,2013-03-29 17:58:00,
2013-03-29 14:03:00,42.6,27.6,30.29,NW,315,2.9,2.9,55,0.00,,,0.00,WUHU21623XXSP,2013-03-29 18:03:00,
2013-03-29 14:08:00,42.8,27.8,30.29,ENE,67,0.0,2.9,55,0.00,,,0.00,WUHU21623XXSP,2013-03-29 18:08:00,
2013-03-29 14:13:00,42.8,27.8,30.29,WNW,301,0.8,1.3,55,0.00,,,0.00,WUHU21623XXSP,2013-03-29 18:13:00,
2013-03-29 14:18:00,42.9,27.8,30.29,NW,315,0.2,3.8,55,0.00,,,0.00,WUHU21623XXSP,2013-03-29 18:18:00,
2013-03-29 14:23:00,43.5,28.5,30.29,WNW,292,3.6,3.8,55,0.00,,,0.00,WUHU21623XXSP,2013-03-29 18:23:00,
2013-03-29 14:28:00,43.6,28.1,30.29,NNW,337,0.0,3.6,54,0.00,,,0.00,WUHU21623XXSP,2013-03-29 18:28:00,
2013-03-29 14:33:00,43.7,27.7,30.29,West,270,1.8,3.6,53,0.00,,,0.00,WUHU21623XXSP,2013-03-29 18:33:00,
2013-03-29 14:38:00,43.8,27.8,30.28,West,270,0.9,2.0,53,0.00,,,0.00,WUHU21623XXSP,2013-03-29 18:38:00,
2013-03-29 14:43:00,44.0,28.0,30.28,NW,315,0.0,0.9,53,0.00,,,0.00,WUHU21623XXSP,2013-03-29 18:43:00,
2013-03-29 14:48:00,44.3,28.7,30.28,WNW,292,3.8,3.8,54,0.00,,,0.00,WUHU21623XXSP,2013-03-29 18:48:00,
2013-03-29 14:53:00,44.6,29.0,30.28,NW,315,0.0,3.8,54,0.00,,,0.00,WUHU21623XXSP,2013-03-29 18:53:00,
2013-03-29 14:58:00,45.0,29.4,30.28,NW,315,0.0,4.3,54,0.00,,,0.00,WUHU21623XXSP,2013-03-29 18:58:00,
2013-03-29 15:03:00,45.1,29.5,30.27,WNW,292,4.5,4.5,54,0.00,,,0.00,WUHU21623XXSP,2013-03-29 19:03:00,
2013-03-29 15:08:00,45.3,29.7,30.27,NNE,22,0.0,4.5,54,0.00,,,0.00,WUHU21623XXSP,2013-03-29 19:08:00,
2013-03-29 15:13:00,45.8,30.1,30.27,NW,315,0.0,4.5,54,0.00,,,0.00,WUHU21623XXSP,2013-03-29 19:13:00,
2013-03-29 15:18:00,46.0,29.8,30.27,NW,315,1.8,1.8,53,0.00,,,0.00,WUHU21623XXSP,2013-03-29 19:18:00,
2013-03-29 15:23:00,46.4,30.2,30.27,West,270,0.0,1.8,53,0.00,,,0.00,WUHU21623XXSP,2013-03-29 19:23:00,
2013-03-29 15:28:00,46.5,30.3,30.26,WNW,292,0.0,1.8,53,0.00,,,0.00,WUHU21623XXSP,2013-03-29 19:28:00,
2013-03-29 15:33:00,47.2,30.5,30.26,ENE,67,3.8,3.8,52,0.00,,,0.00,WUHU21623XXSP,2013-03-29 19:33:00,
2013-03-29 15:38:00,47.6,30.9,30.26,NNW,337,1.8,3.8,52,0.00,,,0.00,WUHU21623XXSP,2013-03-29 19:38:00,
2013-03-29 15:43:00,47.9,30.6,30.26,East,90,0.0,1.8,51,0.00,,,0.00,WUHU21623XXSP,2013-03-29 19:43:00,
2013-03-29 15:48:00,48.2,30.4,30.26,NNW,337,3.8,3.8,50,0.00,,,0.00,WUHU21623XXSP,2013-03-29 19:48:00,
2013-03-29 15:53:00,48.5,30.6,30.25,NW,315,1.8,3.8,50,0.00,,,0.00,WUHU21623XXSP,2013-03-29 19:53:00,
2013-03-29 15:58:00,48.9,31.1,30.26,North,0,0.0,3.8,50,0.00,,,0.00,WUHU21623XXSP,2013-03-29 19:58:00,
2013-03-29 16:03:00,49.2,31.3,30.25,WNW,292,1.6,2.0,50,0.00,,,0.00,WUHU21623XXSP,2013-03-29 20:03:00,
2013-03-29 16:08:00,49.7,31.8,30.25,WNW,292,4.0,4.0,50,0.00,,,0.00,WUHU21623XXSP,2013-03-29 20:08:00,
2013-03-29 16:13:00,49.9,32.0,30.25,WNW,292,1.8,4.0,50,0.00,,,0.00,WUHU21623XXSP,2013-03-29 20:13:00,
2013-03-29 16:18:00,50.4,32.5,30.25,West,270,1.1,4.0,50,0.00,,,0.00,WUHU21623XXSP,2013-03-29 20:18:00,
2013-03-29 16:23:00,50.7,32.7,30.24,West,270,1.1,1.8,50,0.00,,,0.00,WUHU21623XXSP,2013-03-29 20:23:00,
2013-03-29 16:28:00,51.0,33.0,30.25,NNW,337,0.0,1.1,50,0.00,,,0.00,WUHU21623XXSP,2013-03-29 20:28:00,
2013-03-29 16:33:00,51.3,32.7,30.25,NNW,337,0.0,0.0,49,0.00,,,0.00,WUHU21623XXSP,2013-03-29 20:33:00,
2013-03-29 16:38:00,51.6,33.5,30.24,NW,315,0.0,0.0,50,0.00,,,0.00,WUHU21623XXSP,2013-03-29 20:38:00,
2013-03-29 16:43:00,51.9,33.3,30.24,NW,315,0.7,0.7,49,0.00,,,0.00,WUHU21623XXSP,2013-03-29 20:43:00,
2013-03-29 16:48:00,52.2,33.6,30.24,NNW,337,0.0,0.7,49,0.00,,,0.00,WUHU21623XXSP,2013-03-29 20:48:00,
2013-03-29 16:53:00,52.3,33.7,30.24,NNW,337,0.0,0.0,49,0.00,,,0.00,WUHU21623XXSP,2013-03-29 20:53:00,
2013-03-29 16:58:00,52.1,34.0,30.24,NNW,337,0.0,0.0,50,0.00,,,0.00,WUHU21623XXSP,2013-03-29 20:58:00,
2013-03-29 17:03:00,52.0,34.0,30.24,NW,315,0.0,0.0,50,0.00,,,0.00,WUHU21623XXSP,2013-03-29 21:03:00,
2013-03-29 17:08:00,52.0,34.0,30.24,NNE,22,0.0,0.0,50,0.00,,,0.00,WUHU21623XXSP,2013-03-29 21:08:00,
2013-03-29 17:13:00,52.3,34.3,30.24,NW,315,2.9,2.9,50,0.00,,,0.00,WUHU21623XXSP,2013-03-29 21:13:00,
2013-03-29 17:18:00,52.2,33.6,30.24,NW,315,2.9,2.9,49,0.00,,,0.00,WUHU21623XXSP,2013-03-29 21:18:00,
2013-03-29 17:23:00,52.0,33.4,30.24,NNW,337,1.3,2.9,49,0.00,,,0.00,WUHU21623XXSP,2013-03-29 21:23:00,
2013-03-29 17:28:00,51.6,33.1,30.24,WNW,292,1.6,1.6,49,0.00,,,0.00,WUHU21623XXSP,2013-03-29 21:28:00,
2013-03-29 17:33:00,51.6,33.1,30.24,ENE,67,1.1,1.6,49,0.00,,,0.00,WUHU21623XXSP,2013-03-29 21:33:00,
2013-03-29 17:38:00,51.8,33.2,30.23,NNW,337,0.0,1.1,49,0.00,,,0.00,WUHU21623XXSP,2013-03-29 21:38:00,
2013-03-29 17:43:00,52.0,33.4,30.23,WNW,292,0.0,1.1,49,0.00,,,0.00,WUHU21623XXSP,2013-03-29 21:43:00,
2013-03-29 17:48:00,52.2,34.1,30.23,WNW,292,0.0,0.0,50,0.00,,,0.00,WUHU21623XXSP,2013-03-29 21:48:00,
2013-03-29 17:53:00,52.2,33.6,30.23,WNW,292,1.1,1.1,49,0.00,,,0.00,WUHU21623XXSP,2013-03-29 21:53:00,
2013-03-29 17:58:00,52.2,33.6,30.23,North,0,0.0,1.1,49,0.00,,,0.00,WUHU21623XXSP,2013-03-29 21:58:00,
2013-03-29 18:03:00,52.3,33.7,30.23,NNW,337,0.0,1.1,49,0.00,,,0.00,WUHU21623XXSP,2013-03-29 22:03:00,
2013-03-29 18:08:00,52.3,33.7,30.23,ENE,67,0.0,0.0,49,0.00,,,0.00,WUHU21623XXSP,2013-03-29 22:08:00,
2013-03-29 18:13:00,52.3,33.7,30.23,NNW,337,0.0,0.0,49,0.00,,,0.00,WUHU21623XXSP,2013-03-29 22:13:00,
2013-03-29 18:18:00,52.5,33.3,30.23,NW,315,4.9,4.9,48,0.00,,,0.00,WUHU21623XXSP,2013-03-29 22:18:00,
2013-03-29 18:23:00,53.2,34.0,30.23,NW,315,0.0,4.9,48,0.00,,,0.00,WUHU21623XXSP,2013-03-29 22:23:00,
2013-03-29 18:28:00,53.2,33.4,30.23,NNW,337,0.9,0.9,47,0.00,,,0.00,WUHU21623XXSP,2013-03-29 22:28:00,
2013-03-29 18:33:00,53.4,33.6,30.23,WNW,292,0.0,0.9,47,0.00,,,0.00,WUHU21623XXSP,2013-03-29 22:33:00,
2013-03-29 18:38:00,53.2,33.4,30.23,WNW,292,0.0,0.9,47,0.00,,,0.00,WUHU21623XXSP,2013-03-29 22:38:00,
2013-03-29 18:43:00,53.2,33.4,30.23,ENE,67,0.0,0.0,47,0.00,,,0.00,WUHU21623XXSP,2013-03-29 22:43:00,
2013-03-29 18:48:00,53.2,33.4,30.23,NW,315,0.0,0.0,47,0.00,,,0.00,WUHU21623XXSP,2013-03-29 22:48:00,
2013-03-29 18:53:00,52.9,33.1,30.23,NW,315,0.0,0.0,47,0.00,,,0.00,WUHU21623XXSP,2013-03-29 22:53:00,
2013-03-29 18:58:00,52.9,33.1,30.23,WNW,292,0.0,0.0,47,0.00,,,0.00,WUHU21623XXSP,2013-03-29 22:58:00,
2013-03-29 19:03:00,52.9,33.1,30.23,WNW,292,0.0,0.0,47,0.00,,,0.00,WUHU21623XXSP,2013-03-29 23:03:00,
2013-03-29 19:08:00,52.9,33.1,30.23,WNW,292,0.0,0.0,47,0.00,,,0.00,WUHU21623XXSP,2013-03-29 23:08:00,
2013-03-29 19:13:00,52.9,32.5,30.23,NW,315,0.0,0.0,46,0.00,,,0.00,WUHU21623XXSP,2013-03-29 23:13:00,
2013-03-29 19:19:00,52.7,32.4,30.23,WNW,292,3.6,3.6,46,0.00,,,0.00,WUHU21623XXSP,2013-03-29 23:19:00,
2013-03-29 19:24:00,52.5,32.2,30.23,NNW,337,0.0,3.6,46,0.00,,,0.00,WUHU21623XXSP,2013-03-29 23:24:00,
2013-03-29 19:29:00,52.3,32.1,30.23,NNW,337,0.0,3.6,46,0.00,,,0.00,WUHU21623XXSP,2013-03-29 23:29:00,
2013-03-29 19:34:00,52.3,32.6,30.23,NNW,337,0.0,0.0,47,0.00,,,0.00,WUHU21623XXSP,2013-03-29 23:34:00,
2013-03-29 19:39:00,52.3,32.6,30.23,NNW,337,0.0,0.0,47,0.00,,,0.00,WUHU21623XXSP,2013-03-29 23:39:00,
2013-03-29 19:44:00,52.0,32.8,30.23,NNW,337,0.0,0.0,48,0.00,,,0.00,WUHU21623XXSP,2013-03-29 23:44:00,
2013-03-29 19:49:00,51.6,32.5,30.23,NNW,337,0.0,0.0,48,0.00,,,0.00,WUHU21623XXSP,2013-03-29 23:49:00,
2013-03-29 19:54:00,51.4,32.4,30.23,NNW,337,0.0,0.0,48,0.00,,,0.00,WUHU21623XXSP,2013-03-29 23:54:00,
2013-03-29 19:59:00,50.5,31.6,30.23,NNW,337,0.0,0.0,48,0.00,,,0.00,WUHU21623XXSP,2013-03-29 23:59:00,
2013-03-29 20:04:00,50.0,31.6,30.23,NNW,337,0.0,0.0,49,0.00,,,0.00,WUHU21623XXSP,2013-03-30 00:04:00,
2013-03-29 20:09:00,49.3,30.9,30.23,NNW,337,0.0,0.0,49,0.00,,,0.00,WUHU21623XXSP,2013-03-30 00:09:00,
2013-03-29 20:14:00,48.9,30.5,30.23,NNW,337,0.0,0.0,49,0.00,,,0.00,WUHU21623XXSP,2013-03-30 00:14:00,
2013-03-29 20:19:00,48.4,30.0,30.23,NNW,337,0.0,0.0,49,0.00,,,0.00,WUHU21623XXSP,2013-03-30 00:19:00,
2013-03-29 20:24:00,47.8,29.5,30.23,NNW,337,0.0,0.0,49,0.00,,,0.00,WUHU21623XXSP,2013-03-30 00:24:00,
2013-03-29 20:29:00,47.1,28.9,30.23,NNW,337,0.0,0.0,49,0.00,,,0.00,WUHU21623XXSP,2013-03-30 00:29:00,
2013-03-29 20:34:00,46.8,28.5,30.23,NNW,337,0.0,0.0,49,0.00,,,0.00,WUHU21623XXSP,2013-03-30 00:34:00,
2013-03-29 20:39:00,46.2,28.6,30.23,NNW,337,0.0,0.0,50,0.00,,,0.00,WUHU21623XXSP,2013-03-30 00:39:00,
2013-03-29 20:44:00,46.0,28.4,30.24,NNW,337,0.0,0.0,50,0.00,,,0.00,WUHU21623XXSP,2013-03-30 00:44:00,
2013-03-29 20:49:00,45.5,27.9,30.24,NNW,337,0.0,0.0,50,0.00,,,0.00,WUHU21623XXSP,2013-03-30 00:49:00,
2013-03-29 20:54:00,45.1,27.6,30.24,NNW,337,0.0,0.0,50,0.00,,,0.00,WUHU21623XXSP,2013-03-30 00:54:00,
2013-03-29 20:59:00,44.8,27.3,30.24,NNW,337,0.0,0.0,50,0.00,,,0.00,WUHU21623XXSP,2013-03-30 00:59:00,
2013-03-29 21:04:00,44.4,27.0,30.24,NNW,337,0.0,0.0,50,0.00,,,0.00,WUHU21623XXSP,2013-03-30 01:04:00,
2013-03-29 21:09:00,44.1,27.1,30.24,NNW,337,0.0,0.0,51,0.00,,,0.00,WUHU21623XXSP,2013-03-30 01:09:00,
2013-03-29 21:14:00,43.5,26.6,30.24,NNW,337,0.0,0.0,51,0.00,,,0.00,WUHU21623XXSP,2013-03-30 01:14:00,
2013-03-29 21:19:00,43.3,26.4,30.24,NNW,337,0.0,0.0,51,0.00,,,0.00,WUHU21623XXSP,2013-03-30 01:19:00,
2013-03-29 21:24:00,43.0,26.1,30.25,NNW,337,0.0,0.0,51,0.00,,,0.00,WUHU21623XXSP,2013-03-30 01:24:00,
2013-03-29 21:29:00,42.6,25.8,30.25,NNW,337,0.0,0.0,51,0.00,,,0.00,WUHU21623XXSP,2013-03-30 01:29:00,
2013-03-29 21:34:00,42.6,25.8,30.25,NNW,337,0.0,0.0,51,0.00,,,0.00,WUHU21623XXSP,2013-03-30 01:34:00,
2013-03-29 21:39:00,42.1,25.7,30.25,NNW,337,0.0,0.0,52,0.00,,,0.00,WUHU21623XXSP,2013-03-30 01:39:00,
2013-03-29 21:44:00,41.7,25.3,30.25,NNW,337,0.0,0.0,52,0.00,,,0.00,WUHU21623XXSP,2013-03-30 01:44:00,
2013-03-29 21:49:00,41.5,25.1,30.25,NNW,337,0.0,0.0,52,0.00,,,0.00,WUHU21623XXSP,2013-03-30 01:49:00,
2013-03-29 21:54:00,41.2,24.8,30.26,NNW,337,0.0,0.0,52,0.00,,,0.00,WUHU21623XXSP,2013-03-30 01:54:00,
2013-03-29 21:59:00,41.0,24.6,30.26,NNW,337,0.0,0.0,52,0.00,,,0.00,WUHU21623XXSP,2013-03-30 01:59:00,
2013-03-29 22:04:00,40.8,24.9,30.25,NNW,337,0.0,0.0,53,0.00,,,0.00,WUHU21623XXSP,2013-03-30 02:04:00,
2013-03-29 22:09:00,40.6,24.7,30.25,NNW,337,0.0,0.0,53,0.00,,,0.00,WUHU21623XXSP,2013-03-30 02:09:00,
2013-03-29 22:14:00,40.3,24.4,30.25,NNW,337,0.0,0.0,53,0.00,,,0.00,WUHU21623XXSP,2013-03-30 02:14:00,
2013-03-29 22:19:00,40.1,24.2,30.26,NNW,337,0.0,0.0,53,0.00,,,0.00,WUHU21623XXSP,2013-03-30 02:19:00,
2013-03-29 22:24:00,39.7,23.9,30.26,NNW,337,0.0,0.0,53,0.00,,,0.00,WUHU21623XXSP,2013-03-30 02:24:00,
2013-03-29 22:29:00,39.7,24.3,30.26,NNW,337,0.0,0.0,54,0.00,,,0.00,WUHU21623XXSP,2013-03-30 02:29:00,
2013-03-29 22:34:00,39.4,24.0,30.26,NNW,337,0.0,0.0,54,0.00,,,0.00,WUHU21623XXSP,2013-03-30 02:34:00,
2013-03-29 22:39:00,38.8,23.5,30.26,NNW,337,0.0,0.0,54,0.00,,,0.00,WUHU21623XXSP,2013-03-30 02:39:00,
2013-03-29 22:44:00,38.5,23.2,30.26,NNW,337,0.0,0.0,54,0.00,,,0.00,WUHU21623XXSP,2013-03-30 02:44:00,
2013-03-29 22:49:00,38.1,22.9,30.26,NNW,337,0.0,0.0,54,0.00,,,0.00,WUHU21623XXSP,2013-03-30 02:49:00,
2013-03-29 22:54:00,37.8,23.0,30.26,NNW,337,0.0,0.0,55,0.00,,,0.00,WUHU21623XXSP,2013-03-30 02:54:00,
2013-03-29 22:59:00,37.6,22.8,30.26,NNW,337,0.0,0.0,55,0.00,,,0.00,WUHU21623XXSP,2013-03-30 02:59:00,
2013-03-29 23:04:00,37.2,22.9,30.26,NNW,337,0.0,0.0,56,0.00,,,0.00,WUHU21623XXSP,2013-03-30 03:04:00,
2013-03-29 23:09:00,36.9,22.6,30.26,NNW,337,0.0,0.0,56,0.00,,,0.00,WUHU21623XXSP,2013-03-30 03:09:00,
2013-03-29 23:14:00,36.7,22.4,30.26,NNW,337,0.0,0.0,56,0.00,,,0.00,WUHU21623XXSP,2013-03-30 03:14:00,
2013-03-29 23:19:00,36.5,22.7,30.26,NNW,337,0.0,0.0,57,0.00,,,0.00,WUHU21623XXSP,2013-03-30 03:19:00,
2013-03-29 23:24:00,36.1,22.4,30.26,NNW,337,0.0,0.0,57,0.00,,,0.00,WUHU21623XXSP,2013-03-30 03:24:00,
2013-03-29 23:29:00,36.0,22.2,30.26,NNW,337,0.0,0.0,57,0.00,,,0.00,WUHU21623XXSP,2013-03-30 03:29:00,
2013-03-29 23:34:00,35.8,22.5,30.26,NNW,337,0.0,0.0,58,0.00,,,0.00,WUHU21623XXSP,2013-03-30 03:34:00,
2013-03-29 23:39:00,35.4,22.1,30.26,NNW,337,0.0,0.0,58,0.00,,,0.00,WUHU21623XXSP,2013-03-30 03:39:00,
2013-03-29 23:44:00,35.4,22.1,30.26,NNW,337,0.0,0.0,58,0.00,,,0.00,WUHU21623XXSP,2013-03-30 03:44:00,
2013-03-29 23:49:00,35.2,22.0,30.26,NNW,337,0.0,0.0,58,0.00,,,0.00,WUHU21623XXSP,2013-03-30 03:49:00,
2013-03-29 23:54:00,34.9,22.0,30.26,NNW,337,0.0,0.0,59,0.00,,,0.00,WUHU21623XXSP,2013-03-30 03:54:00,
2013-03-29 23:59:00,34.9,22.0,30.25,NNW,337,0.0,0.0,59,0.00,,,0.00,WUHU21623XXSP,2013-03-30 03:59:00,